When you browse on this site, cookies collect data to enhance your experience and personalize the content and advertising you see.
Visit our Privacy Policy to learn more. By continuing to use the site, you agree to this use of cookies and data.
  • In Austria
  • List of Countries
  • For 7 days
  • Water Temperature
  • Weather Map
  • News
  • Weather Widgets
  • user-avatar
    Login

    Hourly Weather Saga

    Today, 15 September, Sunday

    Time Temperature Precipitation Wind Pressure Humidity
    00:00 +29°C° 0 mm 1 mps 757 mmHg 78%
    01:00 +29°C° 0.1 mm 1 mps 756 mmHg 79%
    02:00 +28°C° 0.1 mm 1 mps 756 mmHg 79%
    03:00 +28°C° 0 mm 1 mps 756 mmHg 79%
    04:00 +28°C° 0 mm 1 mps 755 mmHg 79%
    05:00 +28°C° 0 mm 1 mps 755 mmHg 80%
    06:00 +28°C° 0 mm 1 mps 755 mmHg 80%
    07:00 +29°C° 0 mm 1 mps 755 mmHg 75%
    08:00 +30°C° 0 mm 1 mps 756 mmHg 70%
    09:00 +31°C° 0 mm 1 mps 756 mmHg 67%
    10:00 +32°C° 0 mm 1 mps 755 mmHg 61%
    11:00 +35°C° 0 mm 2 mps 755 mmHg 56%
    12:00 +36°C° 0 mm 2 mps 755 mmHg 50%
    13:00 +36°C° 0 mm 2 mps 754 mmHg 51%
    14:00 +35°C° 0 mm 3 mps 754 mmHg 53%
    15:00 +35°C° 0 mm 3 mps 753 mmHg 54%
    16:00 +34°C° 0 mm 4 mps 753 mmHg 59%
    17:00 +33°C° 0 mm 4 mps 754 mmHg 63%
    18:00 +32°C° 0 mm 4 mps 754 mmHg 67%
    19:00 +30°C° 0 mm 4 mps 754 mmHg 70%
    20:00 +29°C° 0 mm 4 mps 754 mmHg 73%
    21:00 +28°C° 0 mm 3 mps 754 mmHg 75%
    22:00 +28°C° 0 mm 3 mps 754 mmHg 76%
    23:00 +28°C° 0 mm 3 mps 754 mmHg 77%

    Tomorrow, 16 September, Monday

    Time Temperature Precipitation Wind Pressure Humidity
    00:00 +27°C° 0 mm 3 mps 754 mmHg 78%
    01:00 +27°C° 0 mm 3 mps 754 mmHg 78%
    02:00 +27°C° 0 mm 3 mps 754 mmHg 79%
    03:00 +27°C° 0 mm 3 mps 754 mmHg 79%
    04:00 +27°C° 0 mm 3 mps 753 mmHg 80%
    05:00 +27°C° 0 mm 3 mps 753 mmHg 80%
    06:00 +27°C° 0 mm 3 mps 753 mmHg 80%
    07:00 +27°C° 0 mm 4 mps 754 mmHg 75%
    08:00 +28°C° 0 mm 4 mps 754 mmHg 71%
    09:00 +29°C° 0 mm 4 mps 754 mmHg 66%
    10:00 +30°C° 0 mm 5 mps 754 mmHg 65%
    11:00 +30°C° 0 mm 5 mps 754 mmHg 63%
    12:00 +30°C° 0 mm 6 mps 754 mmHg 62%
    13:00 +30°C° 0 mm 6 mps 753 mmHg 59%
    14:00 +30°C° 0 mm 6 mps 753 mmHg 57%
    15:00 +30°C° 0 mm 5 mps 753 mmHg 54%
    16:00 +29°C° 0 mm 5 mps 753 mmHg 59%
    17:00 +29°C° 0 mm 5 mps 753 mmHg 63%
    18:00 +28°C° 0 mm 5 mps 754 mmHg 67%
    19:00 +27°C° 0 mm 5 mps 754 mmHg 69%
    20:00 +27°C° 0 mm 5 mps 754 mmHg 72%
    21:00 +26°C° 0 mm 5 mps 755 mmHg 75%
    22:00 +26°C° 0 mm 5 mps 755 mmHg 74%
    23:00 +26°C° 0 mm 5 mps 755 mmHg 74%

    Day after tomorrow, 17 September, Tuesday

    Time Temperature Precipitation Wind Pressure Humidity
    00:00 +26°C° 0 mm 5 mps 755 mmHg 74%
    01:00 +26°C° 0 mm 5 mps 755 mmHg 75%
    02:00 +25°C° 0 mm 4 mps 755 mmHg 76%
    03:00 +25°C° 0 mm 4 mps 755 mmHg 77%
    04:00 +25°C° 0 mm 4 mps 755 mmHg 76%
    05:00 +25°C° 0 mm 4 mps 755 mmHg 76%
    06:00 +25°C° 0 mm 4 mps 755 mmHg 76%
    07:00 +26°C° 0 mm 4 mps 756 mmHg 71%
    08:00 +27°C° 0 mm 5 mps 756 mmHg 67%
    09:00 +29°C° 0 mm 5 mps 756 mmHg 63%
    10:00 +30°C° 0 mm 5 mps 756 mmHg 60%
    11:00 +32°C° 0 mm 5 mps 756 mmHg 56%
    12:00 +33°C° 0 mm 5 mps 756 mmHg 52%
    13:00 +33°C° 0 mm 5 mps 756 mmHg 52%
    14:00 +33°C° 0 mm 5 mps 756 mmHg 52%
    15:00 +33°C° 0 mm 5 mps 755 mmHg 52%
    16:00 +32°C° 0 mm 5 mps 756 mmHg 56%
    17:00 +30°C° 0 mm 5 mps 756 mmHg 60%
    18:00 +28°C° 0 mm 4 mps 756 mmHg 64%
    19:00 +28°C° 0 mm 4 mps 756 mmHg 66%
    20:00 +27°C° 0 mm 4 mps 757 mmHg 68%
    21:00 +26°C° 0 mm 3 mps 757 mmHg 70%
    22:00 +26°C° 0 mm 3 mps 757 mmHg 70%
    23:00 +26°C° 0 mm 3 mps 757 mmHg 71%

    18 September, Wednesday

    Time Temperature Precipitation Wind Pressure Humidity
    00:00 +26°C° 0 mm 3 mps 757 mmHg 71%
    01:00 +25°C° 0 mm 3 mps 757 mmHg 72%
    02:00 +25°C° 0 mm 2 mps 757 mmHg 73%
    03:00 +25°C° 0 mm 2 mps 757 mmHg 74%
    04:00 +25°C° 0 mm 2 mps 757 mmHg 75%
    05:00 +25°C° 0 mm 2 mps 757 mmHg 76%
    06:00 +24°C° 0 mm 3 mps 757 mmHg 77%
    07:00 +26°C° 0 mm 3 mps 758 mmHg 71%
    08:00 +27°C° 0 mm 3 mps 758 mmHg 66%
    09:00 +28°C° 0 mm 3 mps 758 mmHg 61%
    10:00 +29°C° 0 mm 4 mps 758 mmHg 54%
    11:00 +30°C° 0 mm 4 mps 758 mmHg 47%
    12:00 +32°C° 0 mm 4 mps 758 mmHg 40%
    13:00 +32°C° 0 mm 5 mps 757 mmHg 40%
    14:00 +32°C° 0 mm 5 mps 757 mmHg 41%
    15:00 +32°C° 0 mm 6 mps 757 mmHg 41%
    16:00 +30°C° 0 mm 5 mps 757 mmHg 45%
    17:00 +29°C° 0 mm 5 mps 757 mmHg 48%
    18:00 +28°C° 0 mm 5 mps 757 mmHg 51%
    19:00 +27°C° 0 mm 4 mps 757 mmHg 54%
    20:00 +26°C° 0 mm 4 mps 758 mmHg 56%
    21:00 +26°C° 0 mm 3 mps 758 mmHg 58%
    22:00 +25°C° 0 mm 3 mps 758 mmHg 60%
    23:00 +25°C° 0 mm 3 mps 758 mmHg 61%

    19 September, Thursday

    Time Temperature Precipitation Wind Pressure Humidity
    00:00 +25°C° 0 mm 3 mps 758 mmHg 62%
    01:00 +24°C° 0 mm 3 mps 758 mmHg 63%
    02:00 +24°C° 0 mm 3 mps 758 mmHg 63%
    03:00 +24°C° 0 mm 3 mps 758 mmHg 63%
    04:00 +23°C° 0 mm 4 mps 758 mmHg 64%
    05:00 +22°C° 0 mm 4 mps 758 mmHg 65%
    06:00 +22°C° 0 mm 4 mps 758 mmHg 66%
    07:00 +25°C° 0 mm 4 mps 758 mmHg 60%
    08:00 +26°C° 0 mm 5 mps 758 mmHg 54%
    09:00 +27°C° 0 mm 5 mps 759 mmHg 48%
    10:00 +28°C° 0 mm 5 mps 758 mmHg 45%
    11:00 +29°C° 0 mm 5 mps 758 mmHg 43%
    12:00 +30°C° 0 mm 5 mps 758 mmHg 41%
    13:00 +30°C° 0 mm 5 mps 758 mmHg 42%
    14:00 +30°C° 0 mm 5 mps 757 mmHg 43%
    15:00 +32°C° 0 mm 5 mps 757 mmHg 45%
    16:00 +30°C° 0 mm 5 mps 757 mmHg 49%
    17:00 +28°C° 0 mm 5 mps 757 mmHg 54%
    18:00 +27°C° 0 mm 5 mps 757 mmHg 58%
    19:00 +26°C° 0 mm 5 mps 758 mmHg 59%
    20:00 +25°C° 0 mm 4 mps 758 mmHg 60%
    21:00 +23°C° 0 mm 4 mps 758 mmHg 61%
    22:00 +23°C° 0 mm 4 mps 758 mmHg 62%
    23:00 +23°C° 0 mm 4 mps 758 mmHg 64%

    20 September, Friday

    Time Temperature Precipitation Wind Pressure Humidity
    00:00 +22°C° 0 mm 3 mps 758 mmHg 66%
    01:00 +22°C° 0 mm 3 mps 758 mmHg 67%
    02:00 +22°C° 0 mm 3 mps 758 mmHg 67%
    03:00 +22°C° 0 mm 3 mps 758 mmHg 68%
    04:00 +21°C° 0 mm 3 mps 758 mmHg 69%
    05:00 +21°C° 0 mm 3 mps 758 mmHg 70%
    06:00 +21°C° 0 mm 3 mps 758 mmHg 71%
    07:00 +22°C° 0 mm 3 mps 758 mmHg 65%
    08:00 +24°C° 0 mm 3 mps 758 mmHg 60%
    09:00 +25°C° 0 mm 3 mps 758 mmHg 54%
    10:00 +26°C° 0 mm 3 mps 758 mmHg 49%
    11:00 +28°C° 0 mm 3 mps 758 mmHg 44%
    12:00 +29°C° 0 mm 3 mps 757 mmHg 40%
    13:00 +30°C° 0 mm 3 mps 757 mmHg 39%
    14:00 +30°C° 0 mm 3 mps 756 mmHg 39%
    15:00 +31°C° 0 mm 3 mps 756 mmHg 39%
    16:00 +30°C° 0 mm 3 mps 756 mmHg 45%
    17:00 +29°C° 0 mm 4 mps 756 mmHg 50%
    18:00 +27°C° 0 mm 4 mps 756 mmHg 56%
    19:00 +27°C° 0 mm 4 mps 757 mmHg 58%
    20:00 +26°C° 0 mm 3 mps 757 mmHg 60%
    21:00 +25°C° 0 mm 3 mps 757 mmHg 63%
    22:00 +25°C° 0 mm 3 mps 757 mmHg 63%
    23:00 +25°C° 0 mm 3 mps 757 mmHg 64%
    Show more